Weather in Koynas

Russia / Arkhangel'skaya Oblast'     64°45′14″N   47°38′15″E
temp.,
°C
wind,
m/s
gust,
m/s
humid.,
%
clouds,
%
prec.,
mm/h
press.,
hPa
HPBL,
m
8 december, wed
wed800:00−19ese1110065 0.0 103228
03:00−16ese3109746 0.0 1030177
06:00−13ese41489100 0.0 1028380
09:00−11ese51578100 0.0 1026524
12:00−10se41293100 0.4 1024634
15:00−9se41093100 0.8 1023574
18:00−10se389392 0.1 1022428
21:00−10se3795100 0.3 1021322
9 december, thu
thu900:00−11se2695100 0.1 1021253
03:00−12se2497100 0.3 1021142
06:00−12se129872 0.1 102165
09:00−14se119979 0.2 102117
12:00−13ssw119773 0.1 102149
15:00−15sw119979 0.1 102210
18:00−14wsw129791 0.1 102275
21:00−13wsw1497100 0.2 1022137
10 december, fri
fri1000:00−13w259692 0.1 1022179
03:00−13w279698 0.3 1023257
06:00−14w279691 0.1 1024211
09:00−15w289786 0.1 1026169
12:00−11wnw4139593 0.1 1027367
15:00−11w3129329 0.1 1029313
18:00−12w3109687 0.0 1030258
21:00−11w31193100 0.0 1031306
11 december, sat
sat1100:00−12w3109480 0.1 1032283
03:00−14w279542 0.1 1033158
06:00−15wsw259599 0.0 103496
09:00−11wsw2990100 0.0 1034223
12:00−10wsw31188100 0.0 1034304
15:00−12wsw2789100 0.0 1034159
18:00−12sw398687 0.0 1035181
21:00−12sw39845 0.0 1034209
12 december, sun
sun1200:00−12wsw310825 0.0 1033232
03:00−11sw310796 0.0 1033240
06:00−12sw310816 0.0 1032227
09:00−11sw3108030 0.0 1031250
12:00−12sw398183 0.0 1030242
15:00−13ssw268798 0.0 1029132
18:00−13ssw269088 0.0 1028155
21:00−12ssw279598 0.0 1027200